User: anonymous   Login
Location: Unspecified
(0.0000°N, 0.0000°E)
Time: 10:03:35
(UTC+00:00)
Language:

STARLINK-30577 - Orbit

View from above orbital plane
View from above orbital plane
View from above satellite
View from above satellite

Ground track
Ground track

The orbit is defined by the following mean orbital elements,

1 58053U          26144.88396543 +.00000000 +00000-0 +73677-4 0 00001
2 58053  43.0027 316.6626 0001204 271.3461  88.7252 15.27582132    08
Epoch (UTC): 24 May 2026 21:12:54
Eccentricity: 0.0001204
inclination: 43.0027°
perigee height: 482 km
apogee height: 484 km
right ascension of ascending node: 316.6626°
argument of perigee: 271.3461°
revolutions per day: 15.27582132
mean anomaly at epoch: 88.7252°

The dashed part of the orbit path shows where the satellite is in the earth's shadow,  

DLR